Torna al catalogo

FENGYUN 1C DEB

AttivoSSO
NORAD 30401·DEBRIS·🇨🇳 China

Lanciato May 10, 1999 da Taiyuan Satellite Launch Center

Loading…

Prossimi Passaggi (prossime 24 ore)

TLE

AggiornatoSource: Space-Track

Epoca: Sep 13, 2026, 23:22 UTC

1 30401U 99025ADQ 26256.97409997  .00000226  00000-0  10273-3 0  9994
2 30401  98.9093 145.1200 0107892  49.7639 311.2919 14.28189567 22333

Traccia FENGYUN 1C DEB in tempo reale con AllMySat

Download on the App Store